CEB2902 RPVA-RPLL

Flight info

Callsign CEB2902
Flight time N/A
Altitude 31000
Route MALA5R MALAG W9 AKDAP AKDA3R
Aircraft A320/M-VGDW/C

Departure

Time 2026-05-04 00:26
Airport Daniel Z. Romualdez Airport (RPVA)

Arrival

Time N/A
Airport Ninoy Aquino International Airport (RPLL)
Time Latitude Longitude Altitude Speed Heading
2026-05-04 00:16 11.22636 125.02647 20 ft 0 kts 317°
2026-05-04 00:19 11.22637 125.02647 20 ft 0 kts 317°
2026-05-04 00:20 11.22639 125.02647 20 ft 0 kts 347°
2026-05-04 00:20 11.22642 125.02648 20 ft 0 kts 31°
2026-05-04 00:20 11.22643 125.02651 20 ft 0 kts 65°
2026-05-04 00:20 11.22642 125.02654 20 ft 0 kts 105°
2026-05-04 00:21 11.22632 125.02666 20 ft 3 kts 135°
2026-05-04 00:21 11.22613 125.02683 20 ft 4 kts 148°
2026-05-04 00:21 11.22576 125.02708 20 ft 8 kts 134°
2026-05-04 00:21 11.22541 125.02754 20 ft 8 kts 152°
2026-05-04 00:22 11.22470 125.02756 20 ft 12 kts 184°
2026-05-04 00:22 11.22376 125.02750 20 ft 15 kts 184°
2026-05-04 00:22 11.22262 125.02743 21 ft 17 kts 183°
2026-05-04 00:22 11.22208 125.02738 21 ft 17 kts 184°
2026-05-04 00:23 11.22080 125.02730 21 ft 18 kts 183°
2026-05-04 00:23 11.21952 125.02723 21 ft 18 kts 182°
2026-05-04 00:23 11.21866 125.02733 22 ft 12 kts 159°
2026-05-04 00:23 11.21812 125.02738 22 ft 5 kts 204°
2026-05-04 00:24 11.21809 125.02714 22 ft 3 kts 318°
2026-05-04 00:24 11.21823 125.02712 22 ft 0 kts
2026-05-04 00:25 11.21832 125.02713 22 ft 11 kts
2026-05-04 00:25 11.22196 125.02737 21 ft 90 kts
2026-05-04 00:25 11.23071 125.02793 20 ft 153 kts
2026-05-04 00:25 11.24175 125.02857 482 ft 162 kts
2026-05-04 00:26 11.25319 125.02943 1127 ft 167 kts
2026-05-04 00:26 11.26477 125.02990 1847 ft 167 kts
2026-05-04 00:26 11.27668 125.03065 2314 ft 182 kts
2026-05-04 00:26 11.29003 125.03169 2782 ft 200 kts
2026-05-04 00:27 11.30468 125.03278 3278 ft 218 kts
2026-05-04 00:27 11.32079 125.03391 3696 ft 243 kts
2026-05-04 00:27 11.33802 125.03141 4183 ft 266 kts 338°
2026-05-04 00:27 11.35321 125.01962 4886 ft 279 kts 316°
2026-05-04 00:28 11.36683 125.00549 5669 ft 284 kts 316°
2026-05-04 00:28 11.38084 124.99130 6462 ft 287 kts 317°
2026-05-04 00:28 11.39510 124.97699 7303 ft 288 kts 317°
2026-05-04 00:28 11.40952 124.96258 8123 ft 290 kts 317°
2026-05-04 00:29 11.42395 124.94820 8900 ft 292 kts 317°
2026-05-04 00:29 11.43849 124.93371 9661 ft 295 kts 317°
2026-05-04 00:29 11.45322 124.91903 10335 ft 300 kts 317°
2026-05-04 00:29 11.46881 124.90353 10723 ft 316 kts 317°
2026-05-04 00:30 11.48526 124.88716 11032 ft 334 kts 317°
2026-05-04 00:30 11.50241 124.87009 11313 ft 351 kts 317°
2026-05-04 00:30 11.52048 124.85210 11590 ft 368 kts 317°
2026-05-04 00:30 11.53906 124.83358 11963 ft 379 kts 317°
2026-05-04 00:31 11.55806 124.81465 12573 ft 382 kts 318°
2026-05-04 00:31 11.57790 124.79652 13234 ft 382 kts 322°
2026-05-04 00:31 11.59894 124.77992 13780 ft 385 kts 327°
2026-05-04 00:31 11.62119 124.76457 14324 ft 388 kts 329°
2026-05-04 00:32 11.64407 124.74922 14913 ft 390 kts 329°
2026-05-04 00:32 11.66682 124.73402 15472 ft 393 kts 329°
2026-05-04 00:32 11.68982 124.71862 16013 ft 396 kts 329°
2026-05-04 00:32 11.71295 124.70309 16537 ft 399 kts 329°
2026-05-04 00:33 11.73630 124.68739 17049 ft 401 kts 328°
2026-05-04 00:33 11.78330 124.65578 18042 ft 407 kts 328°
2026-05-04 00:33 11.80692 124.63986 18505 ft 409 kts 328°
2026-05-04 00:34 11.83078 124.62377 18960 ft 412 kts 328°
2026-05-04 00:34 11.85500 124.60744 19408 ft 416 kts 328°
2026-05-04 00:34 11.87918 124.59113 19835 ft 419 kts 328°
2026-05-04 00:34 11.90379 124.57452 20283 ft 422 kts 328°
2026-05-04 00:35 11.92836 124.55794 20740 ft 424 kts 328°
2026-05-04 00:35 11.95338 124.54104 21189 ft 427 kts 328°
2026-05-04 00:35 11.97828 124.52422 21623 ft 429 kts 327°
2026-05-04 00:35 12.00320 124.50738 22064 ft 431 kts 327°
2026-05-04 00:36 12.02840 124.49036 22504 ft 434 kts 327°
2026-05-04 00:36 12.05376 124.47321 22940 ft 436 kts 327°
2026-05-04 00:36 12.07901 124.45614 23369 ft 438 kts 327°
2026-05-04 00:36 12.10457 124.43884 23787 ft 441 kts 327°
2026-05-04 00:37 12.13045 124.42141 24196 ft 443 kts 327°
2026-05-04 00:37 12.15646 124.40391 24599 ft 446 kts 327°
2026-05-04 00:37 12.18241 124.38641 24986 ft 448 kts 327°
2026-05-04 00:37 12.20856 124.36874 25370 ft 451 kts 327°
2026-05-04 00:38 12.23469 124.35104 25746 ft 453 kts 327°
2026-05-04 00:38 12.26140 124.33285 26113 ft 455 kts 327°
2026-05-04 00:38 12.28799 124.31465 26492 ft 457 kts 327°
2026-05-04 00:38 12.31467 124.29643 26979 ft 456 kts 327°
2026-05-04 00:39 12.34118 124.27840 27506 ft 453 kts 327°
2026-05-04 00:39 12.36784 124.26032 28008 ft 451 kts 327°
2026-05-04 00:39 12.39444 124.24232 28463 ft 450 kts 327°
2026-05-04 00:39 12.42088 124.22448 28905 ft 450 kts 327°
2026-05-04 00:40 12.44729 124.20666 29329 ft 449 kts 327°
2026-05-04 00:40 12.47346 124.18900 29683 ft 450 kts 327°
2026-05-04 00:40 12.49999 124.17104 29997 ft 452 kts 327°
2026-05-04 00:40 12.52651 124.15310 30290 ft 454 kts 327°
2026-05-04 00:41 12.55294 124.13519 30593 ft 455 kts 327°
2026-05-04 00:41 12.57981 124.11699 30887 ft 457 kts 327°
2026-05-04 00:41 12.60618 124.09911 30943 ft 459 kts 326°
2026-05-04 00:42 12.65990 124.06264 30958 ft 459 kts 326°
2026-05-04 00:42 12.71352 124.02623 30964 ft 459 kts 326°
2026-05-04 00:43 12.76699 123.98992 30977 ft 460 kts 326°
2026-05-04 00:43 12.82079 123.95336 30978 ft 460 kts 326°
2026-05-04 00:44 12.87444 123.91688 30977 ft 460 kts 326°
2026-05-04 00:44 12.92796 123.88045 30973 ft 460 kts 326°
2026-05-04 00:45 12.98127 123.84415 30965 ft 460 kts 326°
2026-05-04 00:45 13.03474 123.80771 30958 ft 460 kts 326°
2026-05-04 00:46 13.08812 123.77132 30959 ft 460 kts 326°
2026-05-04 00:46 13.14044 123.73334 30961 ft 460 kts 321°
2026-05-04 00:47 13.18841 123.68970 30965 ft 459 kts 314°
2026-05-04 00:47 13.23311 123.64245 30962 ft 458 kts 313°
2026-05-04 00:48 13.27765 123.59485 30961 ft 458 kts 313°
2026-05-04 00:48 13.32203 123.54754 30962 ft 458 kts 313°
2026-05-04 00:49 13.36614 123.50054 30967 ft 457 kts 313°
2026-05-04 00:49 13.41049 123.45327 30973 ft 456 kts 313°
2026-05-04 00:50 13.45460 123.40621 30974 ft 457 kts 313°
2026-05-04 00:50 13.49892 123.35888 30973 ft 457 kts 313°
2026-05-04 00:51 13.54288 123.31111 30964 ft 455 kts 310°
2026-05-04 00:51 13.58221 123.25912 30954 ft 453 kts 303°
2026-05-04 00:52 13.61441 123.20298 30951 ft 452 kts 296°
2026-05-04 00:52 13.64222 123.14488 30954 ft 452 kts 295°
2026-05-04 00:53 13.66995 123.08649 30962 ft 451 kts 295°
2026-05-04 00:53 13.69761 123.02838 30963 ft 452 kts 295°
2026-05-04 00:54 13.72532 122.97015 30967 ft 451 kts 295°
2026-05-04 00:54 13.75305 122.91193 30967 ft 451 kts 295°